Weather Service Report


749 
ASUS43 KBIS 050810
RWRBIS

NWR BROADCAST TEXT
NATIONAL WEATHER SERVICE BISMARCK ND
300 AM CDT THU MAY 05 2016

NOTE: "FAIR" INDICATES FEW OR NO CLOUDS BELOW 12,000 FEET WITH NO
SIGNIFICANT WEATHER AND/OR OBSTRUCTIONS TO VISIBILITY.

  
CITY           SKY/WX    TMP DP  RH WIND       PRES   REMARKS
WILLISTON      CLEAR     52  41  66 CALM      29.86S                  
MINOT          CLEAR     66  41  40 SW14      29.85S                  
MINOT AFB      CLEAR     59  43  55 SW10      29.83S                  
BISMARCK       CLEAR     61  45  55 SW7       29.93F                  
DICKINSON      CLEAR     55  42  61 S16       29.92S                  
GARRISON         N/A     54  42  64 SW3       29.90S                  
HETTINGER ARPT CLEAR     55  42  61 S9        29.98F                  
JAMESTOWN      CLEAR     52  40  63 SW7       29.91F                  
BEACH          FAIR      55  41  58 SE14      29.94F                  
CARRINGTON     FAIR      59  45  58 SW14      29.91F                  
HAZEN          FAIR      55  43  62 W6        29.93F                  
LINTON         FAIR      59  45  58 S16       29.97F                  
MANDAN         FAIR      55  45  67 SW10      29.94F                  
OAKES            N/A    N/A N/A N/A MISG        N/A                   
RUGBY          FAIR      59  46  63 SW13      29.85S                  
STANLEY        FAIR      59  43  55 S12       29.90S                  
TIOGA          FAIR      59  39  47 SW13      29.92S                  
WATFORD CITY   FAIR      57  41  54 S7        29.88S                  
$$
  
CITY           SKY/WX    TMP DP  RH WIND       PRES   REMARKS
GRAND FORKS    PTCLDY    53  32  44 S9        29.85F                  
GRAND FORKS AF PTCLDY    57  32  38 SW12      29.85F                  
DEVILS LAKE    CLEAR     56  44  64 SW10      29.87F                  
FARGO          PTCLDY    54  30  40 S10       29.91F                  
CANDO          FAIR      61  43  51 SW16      29.86F                  
CAVALIER       FAIR      54  37  54 S9        29.80F                  
GRAFTON        FAIR      50  34  53 S7        29.85F                  
GWINNER        FAIR      52  34  50 SW10      29.95S                  
LANGDON        FAIR      52  39  62 SW12      29.85S                  
ROLLA          FAIR      59  41  51 SW17G23   29.85F                  
WALHALLA       FAIR      64  41  42 SW16G25   29.79F                  
$$
  
CITY           SKY/WX    TMP DP  RH WIND       PRES   REMARKS
ABERDEEN       CLEAR     44  35  70 S7        29.97F                  
MOBRIDGE       CLEAR     52  45  77 SE6       29.95F                  
BUFFALO          N/A     55  43  63 SE13      29.90F                  
RAPID CITY     CLEAR     48  42  80 SE8       30.00F                  
GLASGOW        CLOUDY    59  39  47 E13       29.82S                  
SIDNEY         CLEAR     52  39  62 CALM      29.87F                  
WOLF POINT     CLOUDY    51  43  74 N5        29.83F                  
GLENDIVE       PTCLDY    57  43  58 S9        29.91F                  
MILES CITY     CLEAR     61  43  51 SE13      29.88S                  
BAKER          CLEAR     56  41  57 S12       29.93F                  
$$
  
CITY           SKY/WX    TMP DP  RH WIND       PRES   REMARKS
BILLINGS       CLOUDY    60  37  42 SW13      29.92R                  
GREAT FALLS    MOCLDY    55  39  54 CALM      29.90S                  
REGINA         CLEAR     54  36  50 SW6       29.77F                  
ESTEVAN        CLEAR     61  41  48 SW15      29.81F                  
$$

  


750 
ASUS43 KBIS 050810
RWRND 

NORTH DAKOTA REGIONAL WEATHER ROUNDUP
NATIONAL WEATHER SERVICE BISMARCK ND
300 AM CDT THU MAY 05 2016

NOTE: "FAIR" INDICATES FEW OR NO CLOUDS BELOW 12,000 FEET WITH NO
SIGNIFICANT WEATHER AND/OR OBSTRUCTIONS TO VISIBILITY.


NDZ001>003-009>011-017-050900-
NORTHWEST NORTH DAKOTA
  
CITY           SKY/WX    TMP DP  RH WIND       PRES   REMARKS
WILLISTON      CLEAR     52  41  66 CALM      29.86S                  
MINOT          CLEAR     66  41  40 SW14      29.85S                  
MINOT AFB      CLEAR     59  43  55 SW10      29.83S                  
$$
 
NDZ018>021-031>035-040>046-050900-
SOUTHWEST NORTH DAKOTA
  
CITY           SKY/WX    TMP DP  RH WIND       PRES   REMARKS
BISMARCK       CLEAR     61  45  55 SW7       29.93F                  
DICKINSON      CLEAR     55  42  61 S16       29.92S                  
GARRISON         N/A     54  42  64 SW3       29.90S                  
HETTINGER ARPT CLEAR     55  42  61 S9        29.98F                  
$$
 
NDZ004>008-012>016-024-026-027-054-050900-
NORTHEAST NORTH DAKOTA
  
CITY           SKY/WX    TMP DP  RH WIND       PRES   REMARKS
GRAND FORKS    PTCLDY    53  32  44 S9        29.85F                  
GRND FRKS AFB  PTCLDY    57  32  38 SW12      29.85F                  
DEVILS LAKE    CLEAR     56  44  64 SW10      29.87F                  
$$
 
NDZ022-023-025-028>030-036>039-047>053-050900-
SOUTHEAST NORTH DAKOTA
  
CITY           SKY/WX    TMP DP  RH WIND       PRES   REMARKS
FARGO          PTCLDY    54  30  40 S10       29.91F                  
JAMESTOWN      CLEAR     52  40  63 SW7       29.91F                  
$$ 

  

Return to Home page


Western Regional Climate Center, wrcc@dri.edu